Wind_Speed
13 14 16 18 21 24 25 25 25 27 28 28 29 29 28 28 28 27 27 27 26 27 28 27 26 27 26 25 24 24 24 24 24 24 25 25 25 27 28 29 30 31 32 32
14 15 17 19 20 22 23 24 24 25 27 27 28 28 28 28 28 27 27 27 27 27 28 28 28 28 27 27 27 27 28 29 28 28 28 29 29 29 29 31 33 34 34 35
14 16 18 18 19 21 22 23 24 25 26 26 27 27 28 29 29 29 28 28 28 28 28 28 29 30 29 29 29 30 30 30 31 31 31 32 32 32 32 32 33 34 34 35
13 14 16 17 19 20 20 23 25 25 24 24 26 24 27 29 29 29 29 29 28 28 28 29 30 31 32 31 31 31 31 31 32 32 33 34 35 35 35 35 36 36 36 35
11 13 14 15 17 20 20 22 23 24 24 23 25 23 27 28 29 29 29 29 29 28 29 29 30 31 32 32 32 32 31 32 33 33 35 36 36 36 36 37 38 38 36 34
11 12 13 13 15 18 19 20 22 23 22 22 23 22 24 27 27 28 28 28 28 28 28 29 29 30 33 33 33 33 33 34 35 36 36 37 38 38 39 40 39 36 34 34
8 9 10 12 13 15 17 17 15 17 19 20 23 23 25 25 26 26 26 27 27 27 27 28 29 30 32 34 35 35 35 36 37 38 38 39 40 40 40 40 38 36 35 34
5 7 8 10 12 13 15 18 15 14 16 18 22 24 25 23 25 25 25 25 25 26 27 28 29 30 32 33 35 36 36 36 38 39 40 41 42 42 42 40 38 37 35 34
3 6 8 9 11 13 14 16 18 16 15 16 21 25 25 23 23 24 25 25 26 26 27 29 29 30 31 33 35 36 37 38 39 40 41 42 43 43 43 41 39 37 36 36
2 4 7 9 11 13 14 14 16 16 14 16 20 23 24 23 24 24 25 26 27 28 28 29 30 31 32 33 34 36 37 39 40 41 42 42 43 43 42 42 40 38 37 36
2 3 5 8 10 12 13 14 16 16 16 14 16 22 24 23 24 25 26 27 28 29 30 31 31 31 32 33 35 36 37 39 39 39 39 40 42 42 41 41 40 40 39 39
2 2 4 7 9 11 13 15 16 15 17 17 16 21 21 23 24 24 25 26 28 29 30 31 32 32 33 34 35 36 37 38 38 39 39 40 40 39 39 39 39 39 39 39
1 1 1 3 6 9 10 12 15 16 16 16 17 21 21 22 23 24 26 27 28 29 30 31 32 32 33 33 34 35 36 37 37 38 38 39 39 38 38 38 39 39 39 39
1 0 2 4 6 8 9 10 13 15 15 16 19 21 20 21 22 23 24 26 27 28 29 30 31 32 32 33 33 35 36 37 37 39 39 40 39 39 39 39 38 38 38 39
1 1 2 3 4 6 8 10 12 14 16 17 18 20 20 21 22 23 24 25 26 26 27 28 29 30 31 32 32 33 34 35 36 37 38 37 38 38 38 38 38 39 39 40
2 2 3 3 4 5 8 9 12 14 16 17 18 19 20 20 22 23 24 25 25 26 27 27 28 28 28 29 29 30 31 31 32 33 34 35 35 36 36 37 36 37 38 39
3 3 3 4 4 5 7 9 12 14 15 17 19 19 20 20 21 23 25 25 25 26 26 26 26 26 27 27 28 29 29 30 31 31 31 32 33 34 34 34 35 35 35 35
4 4 4 4 5 6 7 8 10 12 14 15 17 19 20 21 21 22 23 24 24 24 23 23 24 24 25 26 27 27 28 28 28 29 29 29 30 31 31 32 33 33 33 33
6 6 5 5 6 6 7 8 9 10 11 13 15 17 18 19 20 21 21 22 22 23 23 22 24 24 25 25 25 26 26 26 27 27 28 28 29 29 29 29 30 30 30 31
7 7 7 6 6 7 8 8 9 9 10 12 13 14 15 16 17 18 19 20 20 21 21 22 22 22 23 24 24 25 25 26 26 27 27 27 27 27 27 27 27 27 27 28
8 8 8 8 8 8 9 9 9 9 10 10 12 13 13 15 16 16 17 18 19 19 20 21 21 21 22 23 24 24 24 24 24 24 24 25 25 25 25 25 25 25 26 26
8 9 9 9 9 10 10 10 10 10 10 10 11 11 12 12 13 14 15 16 17 17 19 20 21 21 22 22 22 22 22 22 22 22 23 23 23 23 23 22 22 23 24 24
8 9 9 10 10 11 10 10 11 11 11 11 11 10 10 10 10 11 12 14 14 16 17 18 19 18 18 19 19 19 19 20 21 21 21 21 21 21 21 21 21 22 22 22
9 9 10 11 11 11 11 11 11 12 11 11 10 9 9 9 10 10 11 11 12 13 14 15 16 16 16 16 17 17 18 19 19 19 19 19 19 19 19 19 20 20 20 20
9 10 11 11 12 12 12 12 12 12 12 11 11 10 10 10 10 10 10 10 11 12 12 13 13 14 15 15 16 17 17 17 17 17 17 17 17 18 18 18 18 18 18 17
9 10 11 12 13 13 13 12 12 13 13 12 11 10 10 10 9 9 10 10 11 11 12 12 13 14 14 15 15 15 15 15 15 15 16 16 16 16 16 16 16 15 15 14
Wind_Direction
253 244 235 231 227 224 221 220 222 224 224 225 225 226 227 227 227 226 228 229 230 233 234 233 236 237 238 241 243 244 246 248 249 248 248 250 251 254 258 261 264 265 266 266
253 245 238 235 230 226 221 219 220 222 223 224 226 226 227 228 229 229 228 229 231 234 237 236 237 240 239 243 244 244 247 249 249 251 251 253 255 257 263 268 267 267 268 269
253 245 239 235 230 225 220 217 218 220 222 224 226 228 228 229 231 232 231 231 233 235 237 236 238 242 242 244 245 246 248 251 253 255 259 262 265 265 267 271 272 273 274 275
254 246 239 232 228 224 221 218 218 219 221 226 225 231 231 230 232 233 234 234 235 237 239 239 241 244 244 244 244 246 250 255 260 262 264 267 270 272 272 274 274 273 273 277
255 245 237 231 227 222 219 218 217 217 219 224 226 227 234 233 233 235 236 236 237 240 241 241 242 244 244 246 247 249 252 257 262 265 268 270 272 274 275 277 278 278 279 280
252 245 237 231 225 221 218 217 217 217 219 225 227 229 236 232 234 236 239 239 240 241 242 242 243 242 243 244 247 250 254 259 263 266 271 274 276 279 279 282 285 282 281 283
268 252 242 228 219 217 213 208 210 216 218 225 228 228 234 232 235 238 240 241 241 241 243 243 243 243 244 245 248 252 256 259 264 267 271 275 278 281 284 285 286 287 285 285
272 253 237 220 208 208 209 202 199 211 218 225 230 230 233 234 236 238 239 241 243 243 243 244 245 246 246 248 251 255 259 262 265 269 272 275 279 283 286 288 289 291 290 289
250 244 228 214 206 202 204 204 204 209 215 224 232 234 235 234 236 238 239 241 243 244 244 245 247 249 250 252 255 258 262 266 269 272 275 278 280 283 285 286 288 289 288 288
254 227 220 212 205 208 209 213 215 212 221 230 243 242 238 239 240 241 242 243 245 246 248 249 251 253 255 256 258 261 264 268 270 272 274 276 279 282 284 285 286 287 288 289
244 220 215 211 207 213 214 218 220 220 222 229 247 249 245 244 245 246 246 247 248 250 251 253 256 258 260 261 262 265 266 268 271 273 274 276 278 280 282 283 284 286 286 286
247 206 224 222 219 222 224 225 225 227 235 232 240 253 250 249 249 250 250 251 252 253 255 257 259 261 263 264 265 266 268 270 271 273 275 276 278 279 280 282 284 285 285 284
299 232 235 239 229 228 233 233 231 233 239 241 244 254 252 254 254 254 255 256 256 256 258 259 260 263 264 266 267 267 268 269 270 272 273 275 276 277 278 281 283 283 282 281
332 275 211 227 233 235 239 238 235 236 238 244 246 252 254 255 257 258 258 258 259 260 261 262 263 264 265 266 267 267 267 269 270 271 273 274 275 276 277 279 280 281 281 282
341 302 287 263 249 244 245 243 244 244 243 248 253 255 256 257 258 259 260 261 261 262 263 265 265 266 266 267 267 267 268 268 269 271 273 273 274 276 278 278 280 281 282 283
6 325 305 300 285 269 260 257 253 253 253 256 258 259 258 257 258 260 261 261 262 263 264 266 265 266 266 266 267 268 269 271 271 271 272 274 275 277 278 278 281 283 285 286
15 4 334 321 303 288 277 271 265 263 260 259 262 265 265 262 262 262 261 263 264 264 265 265 265 267 267 268 267 267 270 273 273 274 275 275 276 278 279 281 283 286 287 289
23 13 356 333 321 307 304 291 283 275 272 267 266 265 264 263 265 262 261 261 263 264 266 268 267 267 266 267 267 268 271 273 274 274 275 277 278 280 282 284 286 289 292 293
23 17 5 347 332 320 315 304 298 289 284 280 275 272 267 266 266 265 265 266 266 265 266 267 266 265 264 264 267 270 272 274 277 280 282 283 284 286 288 289 292 294 295 296
20 15 8 356 340 328 324 320 312 303 294 290 285 279 275 271 267 265 266 267 266 265 264 265 266 265 267 271 275 276 276 278 280 282 284 286 287 289 291 292 294 295 296 298
14 11 6 357 347 338 333 329 325 317 311 304 295 288 283 276 270 266 263 263 264 265 267 268 267 271 275 276 278 279 279 280 282 283 285 287 288 290 292 293 295 297 299 301
10 7 3 357 350 345 339 337 333 329 325 319 309 299 288 283 278 272 269 268 267 266 267 268 268 271 274 276 277 278 280 281 283 285 286 287 290 291 293 295 297 299 302 304
12 9 6 2 356 350 347 343 341 337 332 327 321 312 303 293 289 285 284 282 277 272 272 274 275 275 275 276 278 280 282 285 287 288 288 290 292 293 295 297 299 302 305 306
11 7 4 1 357 353 349 346 343 341 338 335 332 328 321 311 301 298 295 290 286 283 283 281 279 278 279 281 283 285 287 289 290 291 291 293 293 294 296 298 301 303 305 307
10 6 4 360 357 355 352 348 346 345 344 341 336 332 330 327 318 311 307 303 299 295 291 288 287 287 287 288 290 291 292 292 292 293 294 294 295 295 297 299 300 303 306 308
8 4 2 359 357 355 353 349 347 347 347 346 342 339 336 332 326 321 317 312 308 305 301 298 296 296 296 295 294 294 294 294 294 295 296 296 297 297 298 300 301 304 307 310
Height
5781 5784 5785 5787 5789 5793 5796 5799 5803 5806 5810 5815 5818 5821 5825 5828 5832 5835 5839 5843 5846 5849 5851 5854 5857 5859 5861 5863 5864 5866 5866 5867 5867 5867 5868 5868 5867 5867 5866 5866 5865 5865 5864 5863
5778 5780 5781 5782 5785 5788 5791 5795 5798 5802 5805 5810 5813 5817 5820 5824 5827 5831 5834 5838 5841 5844 5846 5849 5852 5854 5856 5858 5859 5861 5861 5862 5862 5862 5862 5862 5862 5861 5861 5860 5859 5858 5857 5856
5774 5776 5776 5778 5781 5784 5787 5791 5794 5797 5801 5805 5809 5813 5816 5819 5822 5826 5829 5832 5835 5838 5841 5844 5846 5849 5851 5853 5854 5855 5856 5856 5856 5857 5857 5857 5857 5855 5854 5853 5851 5851 5849 5849
5770 5771 5772 5774 5777 5780 5783 5786 5790 5793 5798 5802 5806 5810 5811 5813 5817 5820 5824 5827 5830 5833 5836 5838 5841 5843 5845 5847 5849 5850 5850 5851 5851 5851 5851 5851 5850 5848 5847 5845 5844 5843 5842 5841
5767 5767 5768 5770 5773 5776 5779 5782 5786 5790 5794 5798 5801 5806 5806 5808 5812 5815 5818 5821 5825 5827 5830 5833 5835 5837 5839 5841 5843 5844 5845 5845 5845 5845 5845 5844 5842 5841 5839 5838 5837 5836 5834 5833
5763 5763 5765 5767 5769 5772 5775 5779 5783 5786 5791 5795 5798 5801 5802 5803 5806 5810 5813 5816 5819 5822 5824 5826 5829 5831 5833 5835 5837 5838 5839 5839 5839 5839 5838 5837 5835 5833 5832 5831 5829 5828 5826 5825
5761 5761 5762 5764 5766 5769 5773 5778 5783 5786 5789 5792 5793 5796 5797 5799 5802 5805 5808 5811 5813 5816 5818 5820 5823 5825 5827 5829 5830 5831 5832 5833 5833 5832 5831 5830 5828 5827 5824 5823 5822 5820 5818 5817
5761 5761 5760 5761 5764 5767 5770 5775 5782 5787 5789 5789 5788 5790 5792 5795 5797 5800 5803 5805 5808 5811 5813 5815 5817 5819 5820 5822 5823 5824 5825 5825 5825 5825 5824 5822 5821 5819 5817 5816 5815 5812 5810 5809
5759 5759 5759 5759 5762 5765 5768 5771 5776 5780 5783 5785 5785 5785 5788 5790 5793 5795 5798 5800 5803 5805 5807 5809 5810 5812 5814 5815 5816 5817 5817 5817 5817 5816 5816 5815 5813 5812 5810 5808 5806 5804 5802 5801
5756 5757 5758 5759 5761 5763 5766 5769 5772 5776 5780 5782 5782 5782 5784 5786 5789 5791 5793 5795 5797 5799 5801 5802 5804 5805 5807 5808 5808 5809 5809 5809 5809 5808 5807 5806 5805 5803 5802 5799 5797 5795 5793 5792
5756 5756 5758 5758 5760 5762 5764 5767 5769 5773 5776 5779 5780 5780 5779 5781 5783 5785 5787 5789 5790 5792 5794 5795 5797 5798 5799 5799 5800 5800 5800 5800 5800 5799 5798 5797 5796 5794 5792 5790 5788 5786 5784 5783
5755 5756 5757 5757 5758 5759 5762 5764 5766 5770 5771 5773 5775 5776 5774 5775 5777 5779 5780 5782 5783 5785 5786 5788 5789 5790 5790 5791 5791 5791 5791 5791 5790 5790 5788 5787 5786 5784 5783 5780 5778 5776 5775 5772
5755 5756 5757 5757 5759 5759 5759 5760 5762 5765 5766 5768 5771 5771 5769 5770 5772 5773 5774 5775 5776 5778 5779 5780 5781 5781 5782 5782 5782 5782 5782 5781 5781 5780 5779 5777 5776 5774 5773 5770 5769 5767 5765 5762
5755 5755 5757 5757 5756 5756 5757 5758 5759 5761 5763 5764 5764 5764 5764 5765 5766 5767 5767 5768 5769 5770 5771 5772 5773 5773 5773 5773 5773 5773 5772 5772 5771 5770 5769 5767 5766 5765 5763 5761 5759 5756 5754 5752
5755 5755 5754 5754 5754 5754 5755 5755 5756 5757 5757 5758 5758 5758 5759 5760 5760 5761 5761 5762 5763 5763 5764 5764 5764 5765 5765 5764 5764 5764 5763 5762 5761 5760 5759 5758 5756 5755 5753 5751 5749 5747 5745 5742
5755 5755 5754 5753 5753 5752 5752 5752 5752 5753 5753 5753 5753 5753 5753 5753 5754 5754 5755 5755 5755 5756 5756 5756 5756 5756 5756 5755 5755 5755 5754 5753 5752 5751 5750 5749 5747 5745 5744 5741 5739 5738 5735 5732
5755 5754 5753 5753 5751 5751 5750 5750 5749 5749 5748 5748 5748 5748 5747 5747 5748 5748 5748 5748 5748 5748 5748 5748 5748 5748 5748 5747 5747 5746 5746 5745 5744 5742 5741 5740 5738 5737 5735 5733 5731 5728 5726 5723
5754 5753 5752 5751 5751 5750 5750 5747 5746 5745 5744 5743 5742 5742 5742 5741 5741 5741 5741 5741 5741 5741 5741 5741 5741 5741 5740 5740 5739 5738 5738 5737 5736 5734 5733 5732 5730 5728 5726 5724 5722 5720 5717 5714
5754 5753 5752 5751 5749 5748 5747 5745 5743 5742 5740 5739 5738 5737 5736 5736 5736 5735 5734 5734 5734 5734 5734 5734 5734 5734 5733 5732 5732 5731 5730 5729 5728 5727 5726 5724 5722 5720 5718 5716 5714 5712 5709 5706
5754 5753 5752 5750 5748 5747 5746 5743 5740 5740 5737 5736 5734 5732 5731 5731 5730 5730 5729 5728 5728 5727 5727 5727 5727 5726 5726 5725 5724 5724 5723 5722 5721 5720 5718 5716 5715 5713 5711 5709 5706 5704 5701 5699
5754 5753 5751 5749 5747 5745 5743 5741 5739 5738 5736 5733 5730 5729 5727 5726 5725 5725 5723 5723 5722 5722 5721 5721 5721 5720 5719 5719 5718 5717 5716 5715 5714 5713 5711 5709 5708 5706 5704 5702 5699 5697 5694 5692
5754 5752 5750 5748 5746 5746 5741 5739 5737 5735 5732 5729 5727 5725 5723 5722 5720 5719 5719 5718 5717 5717 5716 5716 5715 5715 5714 5713 5712 5711 5710 5709 5708 5706 5705 5703 5701 5699 5697 5695 5693 5690 5688 5685
5754 5752 5750 5748 5747 5743 5740 5737 5735 5732 5729 5727 5724 5722 5720 5719 5717 5716 5715 5714 5713 5712 5712 5711 5710 5709 5708 5707 5706 5705 5704 5703 5701 5700 5698 5697 5695 5693 5691 5689 5687 5684 5682 5679
5754 5751 5749 5746 5744 5741 5738 5736 5733 5730 5728 5725 5722 5720 5718 5717 5715 5713 5712 5711 5710 5708 5707 5706 5706 5704 5703 5702 5701 5700 5699 5697 5696 5694 5693 5691 5689 5687 5686 5684 5681 5679 5676 5673
5753 5751 5748 5746 5743 5740 5737 5734 5731 5729 5726 5723 5720 5718 5716 5715 5713 5711 5709 5708 5706 5705 5703 5702 5701 5700 5699 5698 5697 5695 5694 5692 5691 5689 5688 5686 5684 5682 5680 5678 5676 5674 5671 5669
5753 5751 5748 5746 5742 5739 5736 5733 5730 5727 5725 5722 5719 5717 5715 5713 5711 5709 5707 5706 5704 5702 5700 5699 5698 5696 5695 5694 5692 5691 5689 5688 5686 5685 5683 5681 5679 5677 5675 5673 5672 5669 5667 5665